阿斯特拉 3B星 (ASTRA 3B)

导读 | 星芒AI

ASTRA 3B 是由Eutelsat运营的一颗通信卫星,于2002年发射,位于东经28.5度的轨道位置。该卫星主要为欧洲地区提供电视广播、宽带和企业通信服务,支持DVB标准的数字电视传输。ASTRA 3B 在提升欧洲数字电视覆盖率和推动多频道广播发展方面发挥了重要作用。

基本信息
目录编号:
36581
目录名称:
ASTRA 3B
国际标识:
2010-021A
轨道中心:
EARTH
卫星名称:
阿斯特拉 3B星
卫星全名:
阿斯特拉 3B星 (ASTRA 3B)
卫星状态:
在轨 (已飞行5765 天)
发射日期:
2010-05-21 UTC
国别 :
(SES)
星等 :
--
轨道信息
数据来源 国际轨道数据 AOE轨道数据
星历时间 2026-03-03T01:38:59+0800
7小时前
查看轨道信息
2026-03-02T11:00:00+0800
21小时前
查看轨道信息
半长轴 42164.981km 42164.953km
偏心率 0.0003028 0.0003055
轨道倾角 1.193° 1.192°
近地点辐角 277.544° 266.624°
升交点赤经 84.960° 84.975°
平近点角 86.238° 236.794°
近地点 35774.076km 35773.934km
远地点 35799.612km 35799.698km
周期 1436.110分钟 1436.108分钟
每日圈数 1.002709 1.00271
详细信息
卫星平台:
Eurostar E3000
平衡模式:
三轴稳定
覆盖范围:
全球
运营商:
欧洲卫星公司
运营商所在国:
卢森堡
制造商(研发单位):
空客防务与航天公司
制造商所在国:
法国大都会
使用方式:
暂无
卫星简介
阿斯特拉卫星是由SES阿斯特拉运营的商业通信卫星,主要提供电视直播到户业务。Astra卫星包括三个系列共19颗卫星,分别定点在三个不同轨位:Astra-1系列包括十三颗卫星,定点东经19.2度;Astra-2系列包括4颗卫星,定点东经28.2度;Astra-3系列包括2颗卫星,定点东经23.5度。该卫星仍在工作。
2D轨道图
3D轨道图
轨道高度分析图
轨道倾角分析图
轨道综合分析图
查看轨道综合分析图